Dewpoint
41 42 45 46 47 48 48 51 54 57 58 58 60 60 60 60 60 60 59 59 58 58 57 57 56 55 54 53 53 52 51 50 46 46 46 46 45 45 45 46 45 44 46
37 41 41 41 42 44 46 47 47 48 50 53 55 57 59 59 60 60 59 59 58 56 55 55 54 53 52 52 51 50 50 50 48 45 44 43 44 46 45 44 43 42 42
36 37 39 40 41 41 42 45 46 46 47 49 52 53 55 56 57 58 58 57 57 56 55 55 54 52 51 50 50 50 49 48 46 44 43 44 43 43 42 42 41 40 37
37 37 38 39 40 41 42 42 44 46 45 46 48 50 51 52 53 54 54 53 53 53 52 52 52 51 49 48 48 48 46 45 44 44 44 43 42 42 42 40 39 39 38
37 37 39 40 40 41 41 41 42 43 45 45 45 47 47 47 48 48 49 49 49 48 50 50 49 49 47 48 47 47 46 44 42 40 41 42 41 39 39 39 39 37 38
36 36 37 38 39 40 40 41 41 42 43 44 44 44 45 45 45 47 47 47 47 46 46 46 47 46 47 48 48 48 47 44 42 40 41 41 40 39 37 36 36 35 35
35 36 36 37 37 38 39 40 40 41 41 42 43 43 43 43 45 46 46 45 45 45 44 44 43 44 44 45 46 46 46 46 44 41 40 41 39 38 38 36 35 35 35
34 33 34 35 35 36 37 38 38 39 40 41 42 44 44 43 45 45 46 42 42 42 42 42 41 41 40 41 40 38 38 39 40 41 40 39 38 38 37 37 36 34 30
32 31 32 33 33 35 35 36 37 39 39 41 42 42 43 44 44 45 44 39 38 38 38 40 40 40 42 43 38 35 35 34 37 37 38 40 41 41 39 36 33 33 31
30 30 31 31 31 33 33 34 35 36 38 39 41 42 43 43 44 45 44 40 38 39 40 39 41 39 42 43 37 35 33 32 31 31 32 35 38 38 40 34 33 31 31
29 28 29 29 28 30 31 31 33 33 35 35 35 38 41 42 43 44 45 41 40 39 39 39 39 43 42 43 40 35 34 32 33 30 30 30 30 30 29 30 31 28 28
26 26 26 26 26 27 27 29 29 31 32 31 31 33 35 39 43 44 44 45 42 39 38 39 38 41 42 42 41 38 37 34 31 29 29 29 28 27 25 27 29 28 27
22 23 23 24 24 25 25 26 27 30 30 30 30 30 33 35 38 41 43 44 45 41 39 39 39 41 42 41 42 39 38 31 30 28 26 26 26 27 25 25 26 27 26
21 22 23 23 24 25 26 27 27 28 28 29 29 28 28 31 34 38 39 40 42 44 40 39 40 40 41 40 39 39 34 30 28 27 26 23 25 25 24 24 23 22 20
20 21 22 24 24 25 26 27 27 28 29 29 27 27 27 28 31 35 39 39 39 41 39 36 37 37 37 37 36 38 32 29 28 27 24 25 24 25 25 24 24 20 17
19 21 24 26 27 27 27 27 29 30 31 31 31 28 26 29 31 34 36 38 41 40 39 36 35 35 35 35 35 35 33 31 28 27 25 25 25 25 25 24 22 19 18
19 21 24 26 27 27 25 25 24 25 28 28 30 28 28 30 31 32 35 38 39 41 37 35 35 33 33 34 34 34 33 32 30 28 27 27 26 25 26 24 24 22 19
20 25 25 26 26 26 25 25 26 25 25 26 27 27 27 27 30 32 33 36 36 38 37 36 35 34 34 33 33 33 34 32 31 31 28 26 25 24 24 24 24 24 18
22 23 24 26 27 26 27 26 26 26 26 27 26 25 26 27 28 29 32 32 33 34 35 36 35 34 34 34 33 34 33 33 32 31 29 26 25 24 23 24 24 26 24
25 26 26 25 27 30 28 25 25 25 25 26 26 26 25 26 26 28 30 31 33 33 34 35 35 35 33 33 32 32 32 33 32 32 31 29 26 25 24 24 24 24 24
25 26 29 28 31 29 29 28 27 26 25 26 26 25 26 24 26 29 30 29 30 33 34 34 35 34 33 32 32 32 32 32 33 32 32 31 29 27 26 25 25 24 25
28 28 27 27 29 29 28 28 27 27 27 26 26 25 27 26 27 29 27 26 30 33 34 34 35 35 34 33 32 32 32 32 32 32 32 31 29 28 27 25 25 25 25
28 28 27 29 29 28 27 27 27 26 25 25 25 25 25 26 29 24 24 26 30 32 34 34 35 35 35 34 34 33 33 32 33 32 31 30 29 28 27 26 25 25 24
26 25 25 25 26 27 27 27 27 28 27 25 26 27 27 26 26 24 26 27 30 31 33 33 34 34 34 33 33 34 34 34 34 33 32 31 29 29 27 26 26 25 25
26 25 25 25 26 26 28 26 25 24 24 24 24 24 25 25 24 25 27 28 30 30 31 33 34 33 33 33 33 33 34 34 33 32 32 31 30 28 27 26 26 26 26
25 26 26 26 26 25 25 24 23 23 24 24 25 25 25 26 26 28 29 29 28 29 31 33 33 32 33 33 33 33 34 34 33 34 32 32 29 28 27 26 26 26 26
Lifted_Index
8 7 7 6 4 3 3 3 2 2 1 1 1 1 1 1 0 0 0 0 1 1 1 1 1 1 1 1 1 1 1 2 3 4 6 7 7 7 8 8 9 10 10
9 9 8 8 7 6 5 5 4 4 4 3 3 2 1 1 0 -0 0 0 0 0 1 1 1 1 1 1 1 1 2 3 4 5 6 7 7 8 8 9 10 10 10
10 10 9 9 9 9 8 8 8 7 6 6 5 4 3 2 1 0 0 0 0 0 0 0 0 0 0 1 1 2 3 4 5 5 6 7 8 8 8 9 10 10 10
9 9 9 10 10 10 10 10 10 9 8 7 7 6 5 4 3 2 1 1 1 1 1 0 0 0 1 1 2 2 4 5 5 6 6 7 8 8 9 9 10 10 10
9 9 10 10 10 10 10 10 10 10 10 9 8 7 7 6 4 3 3 2 2 1 1 1 1 1 1 2 2 4 4 5 5 6 6 7 8 8 9 9 10 10 10
10 10 11 11 11 11 11 11 11 11 10 10 9 8 7 6 5 4 4 3 2 2 1 1 1 1 1 2 3 5 6 6 6 6 7 7 8 9 9 9 9 9 9
12 12 12 13 13 13 13 12 12 11 11 11 10 9 8 7 6 5 5 4 3 2 2 1 1 1 2 3 4 5 6 7 7 7 7 8 8 9 9 9 9 9 9
14 14 15 15 15 15 15 15 14 13 12 11 11 10 9 8 7 6 5 5 4 3 3 2 2 2 3 4 5 6 6 7 8 8 8 9 9 9 9 9 9 10 10
16 16 17 17 17 17 17 16 16 15 14 13 11 10 9 8 7 6 6 5 5 4 4 4 4 4 5 5 5 6 6 7 8 9 9 9 9 10 10 10 10 11 11
18 18 19 19 18 18 18 17 17 16 15 13 12 11 9 8 7 6 6 5 5 4 4 4 4 5 6 6 6 6 6 7 8 8 8 8 9 11 12 13 13 13 13
19 19 19 19 19 19 18 18 17 16 15 13 12 11 9 8 7 6 6 5 5 4 4 4 5 5 6 6 6 6 7 7 7 7 7 7 8 11 13 14 15 15 14
20 20 19 19 18 18 17 16 15 14 13 13 12 11 9 8 6 6 5 5 5 4 4 4 5 5 5 6 6 7 7 7 7 6 5 6 8 11 14 15 16 16 16
20 19 18 17 16 15 14 13 13 12 12 11 11 10 9 8 7 6 5 6 6 5 4 4 5 5 6 6 6 7 7 6 6 5 5 6 9 12 14 15 16 16 16
20 18 17 15 14 13 12 11 11 11 11 11 10 9 9 9 8 7 6 6 6 5 5 5 5 5 6 6 6 6 6 5 5 5 5 7 10 12 14 15 15 15 14
17 16 15 13 12 11 11 10 10 11 11 10 10 10 9 9 9 9 7 6 5 5 5 5 5 5 5 5 5 5 5 5 5 5 6 7 9 11 13 14 14 13 13
15 14 13 12 11 10 10 10 10 10 11 11 11 10 10 10 10 9 8 7 6 5 5 5 5 5 5 5 5 5 4 4 5 5 6 7 9 11 13 13 14 13 13
13 12 12 11 10 10 10 9 9 10 10 10 11 11 11 10 10 9 9 8 6 6 5 5 5 5 5 5 5 5 5 5 5 6 6 8 11 13 13 13 13 13 13
12 12 11 10 10 9 9 8 9 9 9 10 10 11 11 11 10 10 9 8 7 6 5 5 5 5 6 6 6 6 6 6 6 6 7 8 11 13 13 13 13 13 13
12 11 10 9 8 8 8 7 7 8 8 9 9 10 11 11 11 10 10 9 8 7 6 5 5 5 6 6 7 7 7 7 7 7 7 8 11 13 14 14 14 14 14
12 11 10 8 7 7 6 6 6 7 7 7 8 9 10 10 10 10 10 9 8 7 6 6 6 6 6 7 7 7 7 7 7 8 8 9 10 13 14 15 15 14 14
11 11 9 8 7 6 6 6 6 6 6 7 7 8 9 10 10 10 10 9 8 8 7 6 6 7 7 7 7 7 7 7 8 8 8 9 11 13 15 15 15 15 14
11 10 9 8 7 6 6 6 6 6 6 6 7 8 9 9 10 10 10 9 9 8 7 7 7 7 7 7 7 7 7 7 8 8 8 9 10 13 15 15 15 15 15
10 9 8 8 7 7 6 6 6 6 6 6 7 8 8 9 9 10 9 9 9 8 8 7 7 7 8 8 8 8 8 8 8 8 8 9 10 12 14 15 15 15 15
10 9 8 8 7 7 7 6 6 6 7 7 7 8 8 9 9 9 9 9 8 8 7 7 7 7 8 8 8 8 8 8 8 9 9 10 11 12 15 15 15 15 15
9 9 8 8 7 7 7 7 7 7 7 8 8 8 8 8 8 9 9 8 8 7 8 8 7 7 8 8 9 9 9 9 9 9 10 11 12 14 15 15 15 15 15
9 9 8 8 8 7 7 7 7 8 8 8 8 8 8 8 8 8 8 8 8 8 8 8 7 8 8 9 9 9 9 9 9 10 11 11 12 14 15 14 14 15 15